Regional Weather Roundup
Issued by NWS

Home | Current Version | Previous Version | Text Only | Print | Product List | Glossary On
Versions: 1 2 3 4 5 6 7 8 9 10 11 12 13 14 15 16 17 18 19 20 21 22 23 24 25 26 27 28 29 30 31 32 33 34 35 36 37 38 39 40 41 42 43 44 45 46 47 48 49 50
000
ASUS43 KDMX 190006
RWRIA

WEATHER ROUNDUP FOR IOWA
NATIONAL WEATHER SERVICE DES MOINES IA
700 PM CDT WED OCT 18 2017

NOTE: "FAIR" INDICATES FEW OR NO CLOUDS BELOW 12,000 FEET WITH NO
SIGNIFICANT WEATHER AND/OR OBSTRUCTIONS TO VISIBILITY.

* - THESE STATIONS ARE NOT NWS STATIONS...THUS NOT UNDER NWS
QUALITY CONTROL.  THEY ALSO DO NOT REPORT WEATHER SUCH
AS PRECIPITATION OR FOG.

IAZ001>003-012>014-020>022-031>034-043>046-190100-
   NORTHWEST IOWA

CITY           SKY/WX    TMP DP  RH WIND       PRES   REMARKS
CARROLL *      CLEAR     81  68  65 NW6       29.99R HX  83
CHEROKEE *     CLEAR     56  43  61 CALM      30.01R
DENISON *      CLEAR     63  46  55 N6        30.01R
LE MARS *      CLEAR     64  37  36 N8        30.01R
ORANGE CITY *  CLEAR     68  37  32 N5        30.02R
SHELDON *      CLEAR     52  41  66 NW3       30.00R
SIOUX CITY     CLEAR     59  44  57 NW6       30.01R
6HR MIN TEMP:  59; 6HR MAX TEMP:  73;

SPENCER        CLEAR     61  35  37 N7        30.01R
6HR MIN TEMP:  60; 6HR MAX TEMP:  74;

STORM LAKE *   CLEAR     63  41  45 CALM      30.01R
$$

IAZ055>058-069>071-079>083-090>094-190100-
   SOUTHWEST IOWA

CITY           SKY/WX    TMP DP  RH WIND       PRES   REMARKS
ATLANTIC *     CLEAR     61  50  67 CALM      29.99R
AUDUBON *      CLEAR     64  52  63 CALM      30.01R
CLARINDA *     CLEAR     63  48  59 CALM      30.02R
COUNCIL BLFS * CLEAR     70  50  49 CALM      29.98R
CRESTON *      CLEAR     64  48  55 SW7       30.01R
HARLAN  *      CLEAR     64  48  55 N5        30.03R
LAMONI         CLEAR     63  49  60 S8        30.00R
6HR MIN TEMP:  63; 6HR MAX TEMP:  73;

RED OAK *      CLEAR     63  50  63 CALM      29.99R
SHENANDOAH *   CLEAR     64  50  59 S5        29.99R
$$

IAZ047>049-059>061-072>074-084-190100-
   CENTRAL IOWA

CITY           SKY/WX    TMP DP  RH WIND       PRES   REMARKS
AMES           CLEAR     62  51  67 SW6       29.97R
6HR MIN TEMP:  62; 6HR MAX TEMP:  75;

ANKENY *       CLEAR     68  48  49 SW6G13    29.98R
BOONE *        CLEAR     66  48  52 W5        29.98R
CHARITON *     CLEAR     63  48  59 S6        29.99R
DES MOINES     PTCLDY    67  48  50 SW8       29.98R
6HR MIN TEMP:  67; 6HR MAX TEMP:  75;

GRINNELL*      CLEAR     65  47  52 SW6       30.00R
KNOXVILLE *    CLEAR     64  48  55 S7        29.98R
MARSHALLTOWN   CLEAR     66  49  54 SW8       29.96R
6HR MIN TEMP:  66; 6HR MAX TEMP:  74;

NEWTON *       CLEAR     64  48  55 S8        29.98R
PELLA *        CLEAR     65  48  53 S5        30.00R
PERRY *          N/A     63  46  54 SW7       29.99R
$$

IAZ004>006-015-016-023>025-035-036-190100-
   NORTH CENTRAL IOWA

CITY           SKY/WX    TMP DP  RH WIND       PRES   REMARKS
ALGONA *       PTCLDY    64  39  39 N7        29.99R
CLARION *      CLEAR     63  46  55 NW7       29.98R HAZE
ESTHERVILLE    CLEAR     58  33  39 NW7       30.00R
6HR MIN TEMP:  58; 6HR MAX TEMP:  71;

FORT DODGE *   CLEAR     65  45  48 CALM      29.99R
MASON CITY     CLEAR     59  43  55 NW6       29.99R
6HR MIN TEMP:  57; 6HR MAX TEMP:  73;

FOREST CITY *    N/A     59  43  55 CALM      29.98R
WEBSTER CITY * CLEAR     63  46  55 NW6       29.96R
IOWA FALLS *     N/A     64  49  58 SW6       29.97R
$$

IAZ007>011-017>019-026>030-037>042-050>054-066-190100-
   NORTHEAST IOWA

CITY           SKY/WX    TMP DP  RH WIND       PRES   REMARKS
CEDAR RAPIDS   CLEAR     63  47  55 S8        29.97R
6HR MIN TEMP:  63; 6HR MAX TEMP:  74;

CHARLES CITY * CLEAR     61  46  59 W3        29.97R
CLINTON *      CLEAR     63  46  54 S8        29.99S
DECORAH *      CLEAR     66  48  52 VRB3      29.94R
DUBUQUE        CLEAR     61  47  59 SW12      29.97R
6HR MIN TEMP:  61; 6HR MAX TEMP:  71;

MONTICELLO *   CLEAR     63  46  55 S5        29.97R
OELWEIN *      CLEAR     63  48  59 SW8       29.97R
WATERLOO       CLEAR     61  47  59 SW7       29.96R
6HR MIN TEMP:  61; 6HR MAX TEMP:  74;

$$

IAZ064-065-067-068-078-190100-
   EAST CENTRAL IOWA

CITY           SKY/WX    TMP DP  RH WIND       PRES   REMARKS
DAVENPORT      CLEAR     61  45  55 S6        30.01S
6HR MIN TEMP:  61; 6HR MAX TEMP:  73;

IOWA CITY      CLEAR     66  48  52 S8        29.99R
6HR MIN TEMP:  66; 6HR MAX TEMP:  75;

MUSCATINE *    CLEAR     63  45  51 S5        30.01R
QUAD CITIES    CLEAR     65  43  44 S7        29.99R
6HR MIN TEMP:  65; 6HR MAX TEMP:  74;

$$

IAZ062-063-075>077-085>089-095>099-190100-
   SOUTHEAST IOWA

CITY           SKY/WX    TMP DP  RH WIND       PRES   REMARKS
BURLINGTON     CLEAR     66  44  45 S12       30.01R
6HR MIN TEMP:  65; 6HR MAX TEMP:  73;

FAIRFIELD *    CLEAR     64  46  52 S7        30.00R
FORT MADISON * CLEAR     66  46  48 S6        30.03R
KEOKUK *       CLEAR     66  45  45 S8        30.02R
OSKALOOSA *      N/A     59  48  67 S9        29.99S
OTTUMWA        CLEAR     62  48  60 S6        29.99R
6HR MIN TEMP:  61; 6HR MAX TEMP:  74;

WASHINGTON *   CLEAR     61  46  59 S8        30.01R
$$

ABBREVIATIONS USED IN REMARKS
   TC - TEMPERATURES IN CELSIUS
  WCI - WIND CHILL INDEX
   HX - HEAT INDEX
  VSB - VISIBILITY
$$





USA.gov is the U.S. government's official web portal to all federal, state and local government web resources and services.